This is the latest recevied weather packets stored in our database for station/object K6CED. If no packets are shown the sender has not sent any weather packets the latest 10 day(s).
| Time | Temp. | Humidity | Pressure | Rain* | Wind** | Luminosity | Snow |
|---|---|---|---|---|---|---|---|
| 1777568753 | 16.11° C | 70% | 1015.2 hPa | 0 mm | - | 539 W/m² | - |
| 1777568451 | 16.11° C | 70% | 1015.1 hPa | 0 mm | - | 460 W/m² | - |
| 1777568148 | 15.56° C | 72% | 1015.2 hPa | 0 mm | - | 368 W/m² | - |
| 1777567845 | 15.56° C | 72% | 1015.2 hPa | 0 mm | - | 358 W/m² | - |
| 1777567540 | 15° C | 73% | 1015.3 hPa | 0 mm | - | 362 W/m² | - |
| 1777567238 | 15.56° C | 73% | 1015.3 hPa | 0 mm | - | 340 W/m² | - |
| 1777566937 | 15° C | 75% | 1015.4 hPa | - | - | 315 W/m² | - |
| 1777566634 | 15° C | 75% | 1015.4 hPa | 0 mm | - | 316 W/m² | - |
| 1777566332 | 15° C | 76% | 1015.3 hPa | 0 mm | - | 297 W/m² | - |
| 1777566029 | 14.44° C | 77% | 1015.5 hPa | 0 mm | - | 284 W/m² | - |
| 1777565724 | 14.44° C | 78% | 1015.6 hPa | 0 mm | - | 278 W/m² | - |
| 1777565421 | 13.89° C | 79% | 1015.3 hPa | 0 mm | - | 265 W/m² | - |
| 1777565117 | 13.89° C | 79% | 1015.6 hPa | 0 mm | - | 253 W/m² | - |
| 1777564813 | 13.89° C | 80% | 1015.4 hPa | 0 mm | - | 227 W/m² | - |
| 1777564508 | 13.33° C | 80% | 1015.7 hPa | 0 mm | - | 226 W/m² | - |
| 1777564203 | 13.33° C | 81% | 1015.6 hPa | 0 mm | - | 234 W/m² | - |
| 1777563900 | 12.78° C | 82% | 1015.5 hPa | 0 mm | - | 235 W/m² | - |
| 1777563597 | 12.78° C | 82% | 1015.5 hPa | 0 mm | - | 215 W/m² | - |
| 1777563296 | 12.78° C | 81% | 1015.7 hPa | 0 mm | - | 195 W/m² | - |
| 1777562993 | 12.78° C | 82% | 1015.5 hPa | 0 mm | - | 168 W/m² | - |
| 1777562689 | 12.22° C | 82% | 1015.6 hPa | 0 mm | - | 162 W/m² | - |
| 1777562388 | 12.22° C | 82% | 1015.6 hPa | 0 mm | - | 170 W/m² | - |
| 1777562084 | 12.22° C | 82% | 1015.6 hPa | 0 mm | - | 147 W/m² | - |
| 1777561782 | 12.22° C | 83% | 1015.8 hPa | 0 mm | - | 129 W/m² | - |
| 1777561477 | 11.67° C | 84% | 1015.7 hPa | 0 mm | - | 112 W/m² | - |
* Rain latest hour (hover to see other rain measurements)
** Current wind speed in m/s (hover to see current wind gust speed)